Location: Castillon
(43.0896°N, 0.2156°E)
Time: 20:30:28
(UTC+00:00)

CENTAUR R/B - Pass Details

Date: 16 June 2021
Orbit: 740 x 1447 km, 63.4° (Epoch: 17 July)

Event Time Altitude Azimuth Distance (km) Brightness Sun altitude
Rises 20:04:57 0° 208° (SSW) 3,335 5.2 -4.4°
Reaches altitude 10° 20:07:13 10° 207° (SSW) 2,473 4.5 -4.7°
Maximum altitude 20:12:56 76° 122° (ESE) 986 2.5 -5.5°
Drops below altitude 10° 20:19:48 10° 39° (NE) 2,952 5.1 -6.5°
Sets 20:22:44 0° 38° (NE) 4,026 5.8 -6.9°
